GFSCGP_925_spd_021.txt.gz
Wind_Speed
2 2 8 12 8 2 3 4 7 4 4 4 9 17 20 20 9 16 15 12 16 21 18 23 34 35 31 28 25 22 19 15 13 10 7 6 6 9 8 12 13 17 18 19
3 11 9 5 4 4 3 3 7 7 2 6 8 18 15 17 21 16 18 13 16 13 12 20 29 36 36 34 30 25 20 17 16 14 10 6 7 7 12 14 15 18 19 21
8 4 5 7 4 6 5 6 5 8 4 4 7 9 7 7 9 13 13 11 13 17 17 17 25 34 36 37 35 29 24 19 17 14 11 9 9 9 14 13 19 20 21 22
7 2 6 4 6 8 5 6 3 2 2 4 3 15 4 7 10 9 12 10 14 14 13 15 22 30 34 37 36 32 26 20 16 14 13 12 10 9 12 16 20 21 21 22
7 7 5 5 8 9 7 3 4 1 3 3 4 5 4 3 8 18 10 9 10 12 15 17 21 34 37 39 38 33 29 21 15 13 12 12 13 14 17 19 20 22 21 22
5 1 6 6 3 1 5 4 4 3 2 2 8 10 5 6 9 8 9 7 7 8 11 12 21 26 30 35 38 33 30 25 16 12 11 12 13 15 16 18 18 17 20 24
1 5 3 3 4 3 3 5 4 5 2 9 5 4 13 6 10 12 14 8 6 6 7 9 13 20 26 34 39 35 32 28 20 14 12 13 14 14 15 18 18 19 22 25
5 8 9 6 7 7 6 8 6 9 5 20 4 9 10 16 16 7 6 7 5 7 7 11 14 22 28 32 37 36 32 27 21 15 13 13 13 13 15 17 18 20 22 24
7 9 2 1 2 3 5 6 3 2 2 5 6 13 6 6 12 5 12 6 10 9 9 12 13 23 26 31 37 37 32 27 20 15 13 12 11 12 16 17 19 21 24 23
2 5 1 3 3 0 5 4 3 1 3 7 17 28 18 11 15 11 11 15 11 7 8 10 12 20 24 30 36 35 32 28 19 14 12 11 11 12 15 17 19 22 24 25
5 5 3 2 9 12 3 3 1 2 4 6 13 16 5 8 10 12 12 8 9 9 9 11 11 21 26 31 37 34 31 23 17 13 10 9 10 13 15 18 20 22 22 24
7 5 8 15 1 2 3 9 10 6 7 4 2 29 3 1 9 8 8 7 6 8 8 10 12 19 24 29 30 33 29 22 15 10 7 7 9 11 14 17 18 20 22 24
9 2 3 10 2 3 6 7 6 2 2 19 6 27 6 4 7 9 9 9 9 9 9 9 11 15 24 27 27 32 27 19 13 9 6 5 7 11 14 17 18 20 22 24
11 7 11 20 18 5 6 8 19 19 15 16 28 36 37 36 19 11 8 10 13 11 12 11 11 14 21 24 26 29 23 17 13 8 5 4 7 10 13 16 18 20 21 24
11 12 18 24 30 9 3 10 16 19 30 21 35 22 34 40 21 27 19 22 16 10 12 14 15 14 17 22 24 27 22 17 12 8 5 4 7 10 12 14 16 19 20 21
2 17 14 23 27 21 18 25 26 27 35 28 30 31 44 32 25 27 28 26 20 17 14 14 14 15 17 26 25 25 22 17 11 8 5 4 6 9 12 14 17 19 21 21
7 5 7 25 21 7 4 34 29 27 37 26 30 44 39 28 24 28 24 24 24 20 13 14 17 17 20 26 29 28 24 18 13 9 5 3 6 10 13 15 17 19 21 21
17 11 10 17 9 16 19 18 20 27 35 23 31 36 31 31 32 24 15 23 21 11 11 11 12 14 24 28 31 29 22 17 12 7 4 2 6 10 13 16 18 19 20 20
27 22 11 8 14 18 13 19 9 15 25 29 31 27 33 33 11 26 13 11 19 12 7 10 20 25 27 30 32 29 22 16 12 7 3 2 6 10 13 17 18 19 21 24
28 24 18 12 10 14 18 32 20 12 23 42 29 32 31 18 10 23 7 5 5 7 12 16 26 29 30 28 32 28 21 16 11 7 3 2 5 9 12 14 16 21 22 22
6 9 23 23 20 10 13 24 8 7 27 34 10 20 20 15 16 3 4 4 6 9 15 24 28 26 27 31 30 23 21 15 11 7 3 2 4 7 10 15 17 19 22 24
19 10 10 14 12 19 16 4 17 30 32 28 15 8 9 12 8 7 8 10 13 15 18 24 24 23 25 29 29 21 17 16 11 7 4 3 5 8 10 15 19 21 20 22
19 20 19 16 10 10 10 21 29 29 25 26 6 6 13 10 11 11 8 12 12 16 15 23 26 25 21 24 25 21 18 17 13 9 6 4 6 9 12 16 19 19 17 18
15 24 20 21 20 13 14 17 19 17 26 26 13 8 10 12 9 10 13 13 13 14 15 22 26 21 20 23 21 22 21 17 14 13 9 5 5 9 11 14 12 15 14 17
8 6 15 23 23 23 20 23 24 22 12 13 8 12 19 12 12 16 15 17 17 17 20 25 22 22 22 22 22 21 20 18 15 13 10 7 7 10 12 12 11 12 13 18
17 24 15 17 18 20 30 25 26 25 24 21 17 12 13 17 16 16 15 16 19 20 24 21 22 24 25 24 22 20 18 16 16 14 10 8 8 9 10 14 20 11 13 16

GFSCGP_925_spd_024.txt.gz
Wind_Speed
1 7 16 17 17 13 7 8 17 14 4 5 18 22 25 22 19 24 24 21 20 21 19 26 30 31 30 29 28 26 25 22 19 16 12 9 8 8 8 9 9 8 8 10
4 16 19 6 6 9 10 13 22 14 3 8 15 22 22 22 25 24 25 24 21 18 16 21 27 31 32 31 29 28 26 24 22 17 14 10 9 8 8 9 9 9 11 12
17 9 3 9 10 10 12 18 17 11 4 8 10 16 10 8 15 20 23 23 19 17 16 17 23 31 32 33 34 32 28 25 23 20 16 13 10 10 9 8 6 8 11 12
10 5 11 9 11 14 14 8 12 8 5 12 3 18 13 14 14 12 22 14 14 15 14 15 21 29 36 36 32 31 28 26 25 24 20 16 13 11 8 6 8 10 12 12
6 5 7 11 9 12 6 2 4 3 8 6 12 10 9 2 6 17 17 16 12 13 14 17 18 27 31 32 33 32 28 27 25 26 21 17 15 12 10 9 11 12 12 13
7 1 4 3 3 1 8 3 1 2 4 10 18 18 5 5 7 8 13 14 9 10 12 13 17 21 25 29 31 32 31 28 27 26 22 20 17 14 11 10 10 9 10 12
4 9 3 3 4 3 4 3 5 6 6 15 2 8 15 14 12 14 18 15 5 8 9 11 14 18 23 30 32 32 33 32 28 26 23 21 18 15 13 11 9 10 12 13
5 11 12 9 12 4 11 6 6 14 15 25 5 11 11 11 16 20 7 10 4 7 8 10 13 19 24 29 33 35 36 34 31 28 24 19 16 13 12 11 10 11 13 14
9 10 2 1 2 3 8 8 2 6 2 9 13 21 7 9 13 8 15 11 15 12 10 12 13 21 24 29 34 38 36 34 32 28 22 18 15 13 12 11 10 13 12 13
2 8 4 3 2 1 3 4 4 3 7 19 27 30 19 12 15 12 11 13 15 9 12 12 13 20 24 27 30 34 37 36 31 27 22 17 15 14 12 12 12 12 13 15
5 9 5 5 12 16 5 6 5 2 4 10 20 13 4 5 4 8 13 13 9 9 12 12 13 19 22 23 27 32 34 34 30 26 21 17 15 13 12 11 10 12 14 14
9 3 12 19 1 3 2 10 15 8 8 11 11 28 3 3 5 4 3 5 7 9 12 11 12 18 22 25 27 31 31 31 29 25 20 17 14 13 10 10 11 11 13 13
9 4 5 11 4 1 7 6 10 13 14 32 11 29 13 14 15 11 12 12 8 14 13 12 12 15 20 23 26 29 31 30 26 23 20 17 13 11 10 10 10 10 11 13
12 7 14 21 18 3 6 10 16 22 18 21 24 35 39 33 31 26 20 13 15 16 13 15 15 15 19 22 26 29 30 29 26 24 20 16 14 12 10 9 9 10 11 14
6 11 14 23 25 21 23 21 21 25 27 25 35 28 34 35 33 27 23 18 25 22 13 18 16 15 15 21 25 28 29 28 26 23 19 16 14 11 7 7 8 10 11 14
7 20 24 30 34 32 29 22 31 31 38 33 29 32 35 35 36 33 36 28 27 25 25 21 17 14 16 24 28 30 29 27 26 22 19 16 13 10 8 6 8 10 11 13
9 11 14 21 25 19 15 36 34 41 34 32 32 37 35 34 31 30 34 23 22 25 23 16 17 18 17 27 33 33 32 31 25 21 19 16 13 10 7 7 7 10 11 12
14 16 12 10 7 16 21 23 32 39 37 32 30 34 36 35 34 27 25 19 25 24 23 13 13 13 22 28 31 32 34 30 27 22 20 17 13 10 7 6 6 8 8 11
25 20 9 8 15 11 2 15 25 22 30 26 32 35 36 37 14 30 18 20 23 24 19 9 11 17 24 30 32 32 30 28 25 22 20 17 13 10 7 5 4 6 9 12
26 24 17 8 9 15 16 28 28 8 9 30 26 28 29 24 14 21 22 6 11 4 3 8 17 22 24 26 32 33 28 26 24 23 19 16 13 9 6 3 4 6 8 11
7 11 22 22 20 12 12 11 5 13 19 29 29 27 22 17 18 21 2 2 0 1 9 18 20 19 25 30 33 27 25 22 22 21 19 15 12 8 5 2 3 6 8 10
18 11 10 14 16 23 18 19 24 28 31 24 21 11 8 12 14 12 7 3 2 7 11 15 14 18 23 30 32 27 23 24 24 22 18 16 12 9 6 2 1 4 6 9
21 23 22 22 17 17 17 30 33 32 30 25 18 12 14 13 13 11 9 12 15 15 13 18 19 19 24 25 26 26 24 24 23 22 19 17 13 9 6 3 2 2 4 8
20 20 21 26 25 20 17 18 20 22 24 23 21 10 8 15 11 9 7 9 12 15 15 20 21 17 20 22 21 23 28 25 23 18 16 15 12 9 5 4 2 1 3 7
10 12 8 9 15 21 24 17 12 12 12 13 16 10 16 14 14 15 12 12 13 14 15 23 18 18 24 25 26 29 29 32 25 18 13 11 9 8 6 4 2 1 2 8
19 22 18 20 22 17 20 22 17 16 18 20 18 18 16 14 21 15 15 14 15 16 17 17 23 26 27 26 27 29 31 33 28 20 15 11 10 8 7 5 3 3 2 6

GFSCGP_925_spd_030.txt.gz
Wind_Speed
7 5 12 20 16 18 13 15 16 20 8 9 15 17 18 17 9 11 15 17 12 14 12 27 34 35 35 36 37 37 37 34 34 33 32 29 29 26 24 21 19 17 14 11
4 16 19 9 11 9 8 12 17 16 8 9 11 13 12 10 16 16 17 17 18 11 9 10 27 35 37 39 39 38 40 39 39 39 36 26 30 26 25 22 21 18 16 13
19 8 18 11 11 12 18 13 19 17 12 5 4 7 12 11 18 20 19 19 18 12 10 10 17 27 32 34 40 42 42 40 37 35 34 20 25 18 23 24 24 22 19 16
17 17 18 15 15 9 21 9 10 11 7 9 9 7 8 7 9 10 14 13 16 9 9 12 13 21 31 35 38 39 37 39 39 36 37 36 32 28 28 35 28 23 20 17
7 4 6 13 20 10 15 5 4 4 6 6 7 7 7 11 9 12 11 13 17 6 10 12 15 25 28 33 37 39 37 38 37 40 38 38 34 30 26 27 25 24 21 18
17 3 3 4 3 1 4 1 4 3 2 8 12 12 8 8 9 6 8 12 10 8 8 8 13 23 26 34 35 36 38 39 41 41 41 40 37 32 28 32 31 27 23 19
6 19 4 4 2 1 3 4 3 3 2 11 12 13 17 5 7 10 11 18 9 9 9 9 11 12 21 29 33 37 40 37 42 44 43 42 40 36 36 36 34 29 24 22
6 6 17 9 15 6 8 9 5 7 5 17 5 8 6 9 12 11 14 15 10 10 9 10 11 12 20 26 34 35 37 37 39 43 42 40 40 39 38 38 35 31 28 24
7 8 5 5 2 8 5 7 3 3 1 4 11 11 6 7 11 11 15 7 9 9 9 10 9 14 20 25 32 36 35 35 36 39 37 38 40 39 40 37 33 30 27 23
4 9 6 2 4 3 3 1 2 2 2 8 21 10 15 7 17 11 8 9 7 8 9 9 9 13 25 28 31 33 34 35 36 37 39 37 39 41 38 37 35 32 27 23
5 6 3 7 9 10 3 4 5 2 5 7 14 12 3 5 6 9 10 7 7 8 9 10 9 16 25 29 32 33 35 37 37 40 39 36 39 40 39 38 36 32 27 24
4 1 5 14 4 1 8 11 11 9 11 4 6 26 7 4 3 8 7 8 8 7 9 9 10 12 20 27 27 32 32 34 39 38 40 41 40 40 39 38 35 31 27 24
5 2 4 12 11 3 6 7 12 11 8 16 18 23 8 21 19 8 9 9 8 9 9 9 7 11 13 21 25 30 32 36 37 39 40 39 40 41 40 38 34 30 27 24
4 10 12 16 15 7 9 14 13 15 11 25 22 31 34 28 23 23 23 15 9 11 9 8 8 10 11 22 25 27 29 35 38 38 37 35 37 37 38 37 34 31 28 25
5 10 18 27 31 31 30 29 27 13 21 22 27 25 28 34 18 24 19 14 6 12 14 12 10 10 10 14 24 28 29 35 38 35 35 34 34 36 36 35 33 30 27 24
14 9 16 22 27 28 29 28 26 33 33 29 30 31 35 31 29 28 25 27 14 17 16 10 11 10 10 10 21 26 28 32 37 34 31 32 34 35 35 34 33 29 25 22
7 8 8 14 22 23 19 32 36 34 31 35 30 41 40 29 33 32 30 25 20 15 16 10 10 10 9 16 28 27 29 31 34 30 31 34 34 35 34 33 31 27 25 21
11 16 11 14 11 20 20 21 27 36 37 35 33 34 31 37 35 26 17 22 14 13 13 10 8 8 14 18 24 26 32 36 35 33 34 35 36 34 33 32 30 27 23 19
23 20 13 12 17 22 7 19 23 23 34 33 25 28 33 29 28 26 25 23 15 19 13 9 10 9 9 15 21 26 25 28 32 30 31 34 38 37 35 33 30 25 21 17
28 25 21 18 15 19 16 26 27 20 18 14 21 26 25 23 14 19 26 7 12 14 9 9 10 9 16 21 29 27 23 24 25 30 33 33 35 36 33 32 30 26 21 17
7 15 24 22 19 15 8 9 4 14 18 19 21 21 18 12 11 14 6 7 6 7 8 5 8 8 14 24 28 21 24 26 29 31 34 37 39 37 36 33 29 26 21 15
11 12 13 13 17 19 14 8 11 14 21 16 17 19 21 19 17 12 11 9 7 5 3 6 6 5 13 24 25 18 21 25 29 32 32 32 36 36 35 31 25 22 20 16
5 3 6 5 6 11 8 10 15 16 10 16 20 22 18 19 19 11 10 10 8 6 6 7 7 10 17 22 23 19 21 30 32 30 29 30 32 32 33 32 28 22 19 16
10 21 13 13 6 24 29 26 14 10 14 12 14 17 17 18 19 18 9 8 6 6 9 9 7 8 11 24 25 23 28 33 33 29 28 29 30 30 29 26 25 21 19 14
14 20 17 24 21 23 20 16 19 13 15 16 16 15 15 17 18 15 15 13 8 7 6 14 11 12 14 24 26 30 35 36 30 29 28 27 26 28 27 21 23 19 17 18
13 17 14 20 23 21 24 23 21 17 17 15 17 19 17 15 17 15 13 11 10 12 6 8 11 14 19 24 25 30 35 37 34 29 28 28 27 25 25 25 20 14 16 14

GFSCGP_925_spd_033.txt.gz
Wind_Speed
6 5 10 23 15 12 5 6 7 9 8 7 13 17 21 18 8 15 17 15 14 17 23 24 36 41 41 42 44 46 46 45 41 39 38 35 36 33 31 29 27 25 22 20
3 12 18 7 8 12 12 18 19 13 15 10 10 18 13 13 17 13 18 18 19 19 9 10 24 33 40 45 46 45 48 48 46 45 43 32 37 36 33 31 29 27 25 22
19 8 16 14 9 8 17 14 18 15 7 6 8 11 9 12 16 14 14 18 17 22 13 10 11 28 33 38 44 48 49 49 46 43 41 30 27 26 32 32 31 30 27 24
11 15 14 8 8 14 23 9 12 9 3 14 6 19 7 8 16 14 18 16 19 20 9 8 11 19 32 38 42 45 47 48 47 46 43 39 34 28 32 35 37 34 31 28
10 3 6 13 23 9 19 4 9 3 5 5 5 7 4 8 10 12 15 16 20 13 11 11 16 29 35 36 42 46 47 47 47 49 46 43 33 32 31 36 38 37 33 29
12 2 4 7 1 5 3 2 2 2 2 11 9 11 13 7 13 7 16 15 18 11 10 9 12 20 25 29 33 37 42 44 45 47 46 47 38 35 32 35 38 38 36 33
4 13 10 5 3 1 3 5 3 3 1 11 12 11 25 8 8 14 17 18 18 8 8 9 11 11 19 29 32 34 36 36 41 44 45 45 43 41 41 40 38 39 39 37
3 13 10 7 19 9 9 14 7 8 6 13 4 8 7 14 16 10 12 14 8 9 9 10 12 12 20 28 33 34 36 35 41 45 45 43 44 41 42 43 41 42 42 41
4 8 2 1 0 10 5 7 12 3 2 2 12 14 9 6 10 10 16 10 8 9 9 10 9 12 20 25 32 39 36 35 39 45 42 43 44 43 43 44 43 42 41 38
8 10 3 1 2 3 3 0 2 3 4 7 15 8 15 6 17 17 10 11 10 8 8 8 9 10 21 27 33 36 36 38 39 40 42 42 43 45 42 43 43 43 40 35
3 6 7 3 8 8 1 4 5 3 4 13 17 15 7 8 7 10 11 10 9 9 10 9 9 12 22 28 33 35 38 39 40 44 44 41 44 44 44 43 44 44 39 36
3 1 3 11 7 4 5 12 17 13 19 3 5 15 4 12 9 5 3 5 6 7 8 8 9 9 18 26 28 36 37 37 45 41 39 44 40 43 43 43 43 42 40 38
5 3 7 7 10 2 7 6 10 7 3 17 14 20 3 13 11 8 8 8 7 6 7 7 7 10 13 20 24 29 33 42 40 39 41 39 42 43 43 43 43 41 39 36
10 10 13 19 19 3 4 11 12 10 10 18 21 30 34 32 30 26 22 12 11 10 9 9 8 8 8 20 25 29 31 36 37 38 37 37 40 42 41 42 41 41 39 37
11 11 18 27 30 27 31 32 31 25 21 13 28 20 29 37 24 24 20 17 11 10 8 9 10 9 11 15 24 28 30 34 38 36 36 37 38 40 42 42 41 41 39 37
10 16 15 20 26 30 33 33 33 32 36 28 34 34 34 36 35 30 33 26 17 18 19 15 11 12 12 10 22 28 29 34 37 36 36 36 40 42 44 42 44 42 39 36
16 10 12 25 22 25 20 32 37 36 29 22 24 33 37 35 31 35 32 18 17 19 18 10 13 16 14 17 28 25 32 31 33 29 29 33 35 35 35 39 42 40 39 36
15 12 9 15 13 21 18 18 28 33 32 30 30 33 32 31 32 26 21 21 22 18 11 10 10 11 18 28 26 24 22 26 30 28 30 33 33 32 34 40 40 37 37 34
22 20 11 11 13 13 5 9 14 17 27 25 25 25 25 26 27 27 15 22 21 20 16 15 15 19 22 23 22 23 23 26 27 28 31 34 38 37 40 37 34 34 35 35
13 16 16 15 21 21 15 12 19 19 20 25 14 18 19 19 7 6 22 18 19 20 13 9 10 10 13 18 21 24 20 22 24 32 34 34 35 34 33 32 32 32 32 31
8 9 17 17 19 8 11 17 13 7 11 24 11 11 14 9 6 13 17 20 15 10 10 18 15 10 10 12 20 16 19 21 22 23 29 34 36 38 38 36 31 31 29 28
5 4 9 7 15 24 23 8 9 15 19 19 14 20 17 13 13 13 17 19 21 18 15 14 7 6 9 7 13 12 13 16 22 27 29 31 34 34 36 36 32 35 32 26
7 3 5 6 10 26 4 17 17 10 10 13 13 16 17 20 18 17 15 16 17 18 14 15 5 9 10 13 14 8 6 14 22 26 25 26 28 31 36 34 31 27 28 26
6 8 7 14 3 23 24 13 11 10 13 12 10 13 13 17 18 19 16 15 14 14 12 16 7 7 9 20 21 27 20 22 25 23 23 27 28 26 30 30 34 32 28 24
11 13 8 17 18 18 15 16 15 17 16 11 12 16 17 14 15 16 18 18 15 15 15 16 12 12 18 19 24 26 26 28 29 25 23 23 24 26 27 29 32 33 32 37
14 17 12 18 21 13 19 15 14 9 12 15 15 16 16 16 18 19 19 18 16 15 18 14 15 16 24 26 25 29 33 36 33 31 34 38 35 32 29 27 23 21 27 25